Tracking 19475 objects as of 18-Jan-2019
HD Live streaming from Space Station
objects crossing your sky now

COSMOS 1269

Track COSMOS 1269 now!
10-day predictions
COSMOS 1269 is classified as:


NORAD ID: 12442
Int'l Code: 1981-041A
Perigee: 785.3 km
Apogee: 797.8 km
Inclination: 74.1 °
Period: 100.5 minutes
Semi major axis: 7162 km
RCS: 2.2283 m2 (large)
Launch date: May 7, 1981
Source: Commonwealth of Independent States (former USSR) (CIS)
Launch site: PLESETSK MISSILE AND SPACE COMPLEX (PKMTR)
aabbcc
Your satellite tracking list
Your tracking list is empty




NASA's NSSDC Master Catalog

Two Line Element Set (TLE):
1 12442U 81041A   19017.21562048  .00000003  00000-0  10532-4 0  9991
2 12442  74.0538 263.1315 0008752  80.1514 280.0625 14.32195489968455
Source of the keplerian elements: AFSPC